This is the latest recevied weather packets stored in our database for station/object N5JXS. If no packets are shown the sender has not sent any weather packets the latest 1 day(s).
| Time | Temp. | Humidity | Pressure | Rain* | Wind** | Luminosity | Snow |
|---|---|---|---|---|---|---|---|
| 1778017473 | 0.56° C | 98% | 1013.4 hPa | 0 mm | 0 m/s | 61 W/m² | - |
| 1778017170 | 0.56° C | 98% | 1013.5 hPa | 0 mm | 0 m/s | 51 W/m² | - |
| 1778016867 | 0.56° C | 98% | 1013.6 hPa | 0 mm | 0 m/s | 47 W/m² | - |
| 1778016563 | 0.56° C | 98% | 1013.8 hPa | 0 mm | 0.45 m/s, 1° | 51 W/m² | - |
| 1778016260 | 0.56° C | 98% | 1013.9 hPa | 0 mm | 0 m/s | 50 W/m² | - |
| 1778015956 | 0.56° C | 98% | 1013.8 hPa | 0 mm | 0.45 m/s, 21° | 36 W/m² | - |
| 1778015654 | 0.56° C | 98% | 1014 hPa | 0 mm | 0.45 m/s, 12° | 44 W/m² | - |
| 1778015350 | 1.11° C | 98% | 1013.9 hPa | 0 mm | 0.89 m/s, 8° | 64 W/m² | - |
| 1778015048 | 1.11° C | 98% | 1014 hPa | 1.78 mm | 0.89 m/s, 353° | 70 W/m² | - |
| 1778014745 | 1.11° C | 98% | 1014.3 hPa | 1.78 mm | 0.45 m/s, 325° | 73 W/m² | - |
| 1778014443 | 1.11° C | 98% | 1014 hPa | 0 mm | 0 m/s | 95 W/m² | - |
| 1778014139 | 1.11° C | 98% | 1014.3 hPa | 0 mm | 0 m/s | 85 W/m² | - |
| 1778013837 | 1.11° C | 98% | 1014 hPa | 0 mm | 0 m/s | 98 W/m² | - |
| 1778013534 | 1.11° C | 98% | 1014.1 hPa | 1.27 mm | 0.45 m/s, 254° | 84 W/m² | - |
| 1778013230 | 1.11° C | 98% | 1014.1 hPa | 1.27 mm | 0.89 m/s, 258° | 94 W/m² | - |
| 1778012927 | 1.11° C | 98% | 1014 hPa | 0 mm | 0.89 m/s, 164° | 112 W/m² | - |
| 1778012623 | 1.11° C | 98% | 1014.1 hPa | 1.78 mm | 0.89 m/s, 5° | 108 W/m² | - |
| 1778012320 | 1.11° C | 98% | 1014.3 hPa | 1.78 mm | 0.45 m/s, 355° | 179 W/m² | - |
| 1778012017 | 1.11° C | 98% | 1014.5 hPa | 0 mm | 0.45 m/s, 317° | 114 W/m² | - |
| 1778011716 | 1.11° C | 98% | 1014.4 hPa | 0 mm | 0 m/s | 117 W/m² | - |
| 1778011412 | 1.67° C | 98% | 1014.5 hPa | 1.78 mm | 0.89 m/s, 27° | 187 W/m² | - |
| 1778011108 | 1.11° C | 98% | 1014.5 hPa | 3.05 mm | 0.45 m/s, 12° | 147 W/m² | - |
| 1778010805 | 1.11° C | 98% | 1014.4 hPa | 1.27 mm | 0.45 m/s, 13° | 150 W/m² | - |
| 1778010502 | 1.11° C | 98% | 1014.5 hPa | 1.78 mm | 0 m/s | 141 W/m² | - |
| 1778010200 | 1.11° C | 97% | 1014.6 hPa | 1.78 mm | 0 m/s | 78 W/m² | - |
* Rain latest hour (hover to see other rain measurements)
** Current wind speed in m/s (hover to see current wind gust speed)